{"data":{"norad_id":63200,"intl_designator":"2025-048T","name":"STARLINK-32934","alt_names":[],"object_type":"PAYLOAD","status":"ACTIVE","operator":null,"country":"US","launch_date":"2025-03-13","launch_site_code":"AFETR","launch_vehicle":null,"mission":null,"orbit_class":"UNKNOWN","rcs_meters":null,"size_class":null,"mass_kg":null,"dimensions":null,"purposes":["comms"],"wikipedia_slug":null,"has_3d_model":false,"image_url":null,"decayed_at":null,"tle_current":{"epoch":"2026-05-24T22:05:13.263360Z","epoch_age_seconds":72118,"freshness":"FRESH","line1":"1 63200U 25048T   26144.92029240  .00024108  00000+0  88232-3 0  9995","line2":"2 63200  42.9998  14.5487 0001075 272.1553  87.9176 15.27595330 68755","mean_motion":15.2759533,"eccentricity":0.0001075,"inclination_deg":42.9998,"raan_deg":14.5487,"arg_perigee_deg":272.1553,"mean_anomaly_deg":87.9176,"bstar":0.00088232,"rev_number":6875,"period_min":94.265802710984,"perigee_km":482.26562031786,"apogee_km":483.74076545933,"semimajor_km":6861.1401928886,"source":"CELESTRAK","updated_at":"2026-05-25T13:38:19.922752Z"}}}